Location: Little Italy
(41.5089°N, 81.5982°W)
Time: 12:08:06
(UTC+00:00)

Daily predictions for brighter satellites

Satellite Brightness Start Highest point End
(mag) Time Altitude Azimuth Time Altitude Azimuth Time Altitude Azimuth
CORIOLIS 4.3 23:03:48 10° SSE 23:09:09 87° WSW 23:14:32 10° NNW
Unknown 4.2 23:05:38 10° WSW 23:09:42 55° NNW 23:13:47 10° NE
CZ-4 R/B 2.2 23:06:24 10° SE 23:10:06 33° ENE 23:13:52 10° N
Unknown 4.2 23:07:00 10° WSW 23:11:05 58° NW 23:15:12 10° NE
Unknown 4.2 23:08:43 10° WSW 23:12:47 56° NNW 23:16:53 10° NE
Cosmos 1992 Rocket 4.1 23:07:55 10° S 23:13:03 60° ESE 23:18:12 10° NNE
COSMO-SKYMED 1 2.9 23:09:53 10° NNE 23:14:04 45° E 23:18:14 10° S
Cosmos 2084 3.6 23:10:57 10° SSW 23:15:29 69° ESE 23:19:57 10° NE
Cosmos 1844 Rocket 2.7 23:10:08 10° SSW 23:15:46 71° ESE 23:21:24 10° NNE
Unknown 4.3 23:12:03 10° WSW 23:16:07 53° NNW 23:20:11 10° NE
Cosmos 1503 Rocket 4.1 23:11:20 10° N 23:16:25 53° ENE 23:21:28 10° SE
Unknown 4.3 23:13:46 10° WSW 23:17:48 52° NNW 23:21:53 10° NE
Unknown 4.4 23:15:27 10° WSW 23:19:28 51° NNW 23:23:32 10° NE
Unknown 4.4 23:17:09 10° WSW 23:21:10 49° NNW 23:25:12 10° NE
USA 116 4.1 23:20:36 10° NE 23:23:23 28° E 23:26:16 10° SSE
Cosmos 1821 Rocket 4.0 23:17:31 10° N 23:23:37 65° E 23:29:42 10° SSE
Unknown 4.5 23:20:30 10° WSW 23:24:29 46° NNW 23:28:30 10° NE
Cosmos 1825 Rocket 3.5 23:20:34 10° N 23:24:56 72° E 23:29:19 10° SSE
Cosmos 1953 Rocket 3.7 23:22:01 10° N 23:26:17 49° ENE 23:30:30 10° SSE
Nadezhda 3 Rocket 4.0 23:22:29 10° S 23:28:45 84° E 23:35:07 10° N
Lacrosse 5 3.9 23:26:51 10° NNW 23:29:50 15° NNE 23:32:47 10° NE
Meteor 1-21 Rocket 4.3 23:24:00 10° N 23:29:55 81° E 23:35:41 10° SSE
Cosmos 2278 Rocket 3.3 23:28:24 10° SSE 23:32:42 23° E 23:37:01 10° NE
Cosmos 1844 3.7 23:30:20 10° SSW 23:36:01 81° ESE 23:41:48 10° NNE
Cosmos 292 Rocket 4.2 23:32:52 10° S 23:37:13 37° ESE 23:41:36 10° NE
Cosmos 1606 Rocket 3.6 23:33:06 10° S 23:37:31 86° W 23:41:55 10° N
Cosmos 1934 Rocket 4.1 23:31:48 10° N 23:38:00 54° E 23:44:12 10° SSE
SWAS 4.4 23:35:35 10° SSW 23:39:49 71° ESE 23:44:06 10° NNE
BREEZE-M DEB (TANK) 4.1 23:39:18 10° NW 23:43:38 50° NNE 23:52:47 15° E
COBE Rocket 4.3 23:38:54 10° N 23:44:05 71° WNW 23:49:08 10° SSW
CZ-2D R/B 4.0 23:40:59 10° SE 23:44:23 31° ENE 23:47:50 10° N
ATLAS 5 CENTAUR R/B 3.0 23:42:02 10° WSW 23:45:58 36° NW 23:50:21 10° NNE
SL-4 R/B 1.7 23:42:13 10° NW 23:46:05 73° NE 23:48:39 18° ESE
Cosmos 1271 Rocket 2.8 23:43:05 10° N 23:47:04 84° W 23:51:03 10° S
Cosmos 1758 Rocket 4.3 23:43:29 10° NNW 23:47:51 57° W 23:52:14 10° S
Cosmos 1356 3.5 23:47:07 10° S 23:50:27 52° E 23:53:49 10° NNE
